Radiation Dose at Monitoring Post of Fukushima Daini Nuclear Power Station
Date,Time,MP-1(microSv/h),MP-2(microSv/h),MP-3(microSv/h),MP-4(microSv/h),MP-5(microSv/h),MP-6(microSv/h),MP-7(microSv/h),Wind Direction,Wind Velocity(m/s),Rain
2016/10/07,00:00,0.390,0.238,0.411,0.375,0.366,0.193,0.165,north,4.0,No
2016/10/07,00:10,0.392,0.238,0.408,0.379,0.364,0.193,0.165,north,3.8,No
2016/10/07,00:20,0.390,0.236,0.410,0.375,0.363,0.192,0.165,north,3.9,No
2016/10/07,00:30,0.391,0.237,0.410,0.379,0.365,0.194,0.165,north,3.7,No
2016/10/07,00:40,0.391,0.237,0.409,0.375,0.364,0.193,0.167,north,3.2,No
2016/10/07,00:50,0.391,0.236,0.408,0.378,0.364,0.194,0.164,north,2.7,No
2016/10/07,01:00,0.394,0.237,0.410,0.375,0.363,0.193,0.165,north-northeast,2.3,No
2016/10/07,01:10,0.390,0.236,0.409,0.377,0.364,0.193,0.167,north,2.1,No
2016/10/07,01:20,0.393,0.237,0.410,0.376,0.364,0.194,0.166,north,2.5,No
2016/10/07,01:30,0.391,0.237,0.410,0.377,0.365,0.194,0.166,north,3.7,No
2016/10/07,01:40,0.390,0.237,0.409,0.376,0.362,0.194,0.165,north,4.2,No
2016/10/07,01:50,0.392,0.238,0.410,0.376,0.362,0.193,0.166,north,5.1,No
2016/10/07,02:00,0.392,0.236,0.408,0.378,0.364,0.194,0.166,north-northwest,5.3,No
2016/10/07,02:10,0.391,0.237,0.410,0.378,0.364,0.193,0.166,north-northwest,4.5,No
2016/10/07,02:20,0.390,0.237,0.408,0.380,0.365,0.193,0.166,north-northwest,4.7,No
2016/10/07,02:30,0.391,0.237,0.409,0.375,0.362,0.194,0.165,north-northwest,6.7,No
2016/10/07,02:40,0.388,0.238,0.408,0.378,0.365,0.193,0.165,north-northwest,5.3,No
2016/10/07,02:50,0.390,0.237,0.409,0.376,0.364,0.193,0.167,northwest,4.0,No
2016/10/07,03:00,0.390,0.237,0.410,0.378,0.364,0.193,0.165,northwest,2.6,No
2016/10/07,03:10,0.390,0.237,0.408,0.376,0.364,0.193,0.164,north-northwest,3.4,No
2016/10/07,03:20,0.393,0.236,0.411,0.376,0.363,0.193,0.165,north-northwest,4.5,No
2016/10/07,03:30,0.391,0.236,0.408,0.376,0.365,0.193,0.166,northwest,3.7,No
2016/10/07,03:40,0.393,0.236,0.409,0.377,0.363,0.193,0.165,north-northwest,4.1,No
2016/10/07,03:50,0.390,0.236,0.409,0.378,0.364,0.194,0.166,northwest,4.6,No
2016/10/07,04:00,0.391,0.238,0.408,0.375,0.364,0.193,0.165,northwest,3.7,No
2016/10/07,04:10,0.390,0.236,0.410,0.378,0.361,0.193,0.165,northwest,4.0,No
2016/10/07,04:20,0.389,0.236,0.409,0.376,0.364,0.192,0.166,northwest,3.1,No
2016/10/07,04:30,0.393,0.236,0.409,0.377,0.361,0.193,0.164,north-northwest,1.9,No
2016/10/07,04:40,0.391,0.237,0.409,0.377,0.363,0.192,0.165,northwest,1.4,No
2016/10/07,04:50,0.393,0.237,0.406,0.375,0.363,0.193,0.165,northwest,3.0,No
2016/10/07,05:00,0.390,0.236,0.410,0.376,0.362,0.194,0.165,northwest,2.7,No
2016/10/07,05:10,0.393,0.236,0.408,0.376,0.364,0.192,0.166,northwest,3.9,No
2016/10/07,05:20,0.390,0.237,0.410,0.378,0.363,0.193,0.165,northwest,3.3,No
2016/10/07,05:30,0.390,0.236,0.409,0.376,0.363,0.193,0.166,northwest,3.2,No
2016/10/07,05:40,0.390,0.236,0.409,0.376,0.362,0.192,0.164,northwest,3.6,No
2016/10/07,05:50,0.388,0.237,0.410,0.376,0.362,0.193,0.165,northwest,3.7,No
2016/10/07,06:00,0.391,0.236,0.409,0.376,0.365,0.192,0.166,northwest,3.5,No
2016/10/07,06:10,0.390,0.236,0.412,0.377,0.363,0.194,0.165,north-northwest,3.8,No
2016/10/07,06:20,0.391,0.237,0.408,0.375,0.365,0.193,0.165,northwest,2.5,No
2016/10/07,06:30,0.391,0.236,0.410,0.378,0.364,0.192,0.164,north-northwest,2.3,No
2016/10/07,06:40,0.390,0.235,0.407,0.375,0.364,0.193,0.165,northwest,2.2,No
2016/10/07,06:50,0.391,0.236,0.410,0.376,0.362,0.193,0.164,north-northwest,3.8,No
2016/10/07,07:00,0.389,0.237,0.407,0.374,0.361,0.192,0.164,northwest,3.6,No
2016/10/07,07:10,0.391,0.237,0.406,0.374,0.365,0.193,0.164,west-northwest,4.2,No
2016/10/07,07:20,0.389,0.237,0.409,0.375,0.363,0.193,0.166,northwest,3.7,No
2016/10/07,07:30,0.391,0.237,0.407,0.378,0.364,0.192,0.165,northwest,3.9,No
2016/10/07,07:40,0.390,0.236,0.410,0.374,0.362,0.194,0.163,northwest,3.6,No
2016/10/07,07:50,0.390,0.236,0.407,0.375,0.365,0.193,0.165,northwest,3.5,No
2016/10/07,08:00,0.390,0.236,0.409,0.373,0.362,0.192,0.164,north-northwest,5.4,No
2016/10/07,08:10,0.391,0.238,0.407,0.376,0.363,0.193,0.164,north-northwest,4.2,No
2016/10/07,08:20,0.391,0.236,0.410,0.375,0.360,0.193,0.163,north-northwest,4.2,No
2016/10/07,08:30,0.391,0.234,0.407,0.376,0.365,0.193,0.165,northwest,4.3,No
2016/10/07,08:40,0.390,0.237,0.410,0.375,0.361,0.193,0.165,north-northwest,5.6,No
2016/10/07,08:50,0.392,0.234,0.406,0.374,0.365,0.193,0.164,north,5.2,No
2016/10/07,09:00,0.389,0.234,0.409,0.378,0.363,0.193,0.164,northwest,4.7,No
2016/10/07,09:10,0.392,0.236,0.406,0.374,0.360,0.192,0.163,north,4.7,No
2016/10/07,09:20,0.388,0.236,0.411,0.370,0.365,0.191,0.165,north,5.2,No
2016/10/07,09:30,0.389,0.235,0.407,0.375,0.361,0.193,0.165,north-northwest,6.3,No
2016/10/07,09:40,0.391,0.236,0.409,0.377,0.361,0.193,0.165,north,6.0,No
2016/10/07,09:50,0.389,0.237,0.407,0.374,0.366,0.193,0.164,north,6.0,No
2016/10/07,10:00,0.388,0.235,0.411,0.374,0.363,0.193,0.164,north,5.6,No
2016/10/07,10:10,0.392,0.235,0.409,0.371,0.359,0.193,0.164,north,5.3,No
2016/10/07,10:20,0.390,0.237,0.410,0.371,0.364,0.192,0.165,north-northeast,4.4,No
2016/10/07,10:30,0.388,0.236,0.410,0.372,0.365,0.193,0.165,north-northeast,4.3,No
2016/10/07,10:40,0.390,0.234,0.404,0.372,0.362,0.194,0.164,north-northeast,3.5,No
2016/10/07,10:50,0.393,0.236,0.407,0.372,0.360,0.194,0.165,northeast,4.8,No
2016/10/07,11:00,0.390,0.237,0.411,0.375,0.361,0.193,0.164,northeast,5.9,No
2016/10/07,11:10,0.388,0.237,0.407,0.379,0.365,0.193,0.166,northeast,7.1,No
2016/10/07,11:20,0.392,0.236,0.405,0.379,0.363,0.193,0.166,northeast,6.2,No
2016/10/07,11:30,0.393,0.237,0.406,0.376,0.360,0.193,0.165,northeast,5.9,No
2016/10/07,11:40,0.388,0.237,0.412,0.374,0.362,0.193,0.165,east-northeast,7.4,No
2016/10/07,11:50,0.391,0.236,0.409,0.373,0.365,0.193,0.166,east-northeast,4.7,No
2016/10/07,12:00,0.392,0.237,0.406,0.373,0.363,0.194,0.166,northeast,5.0,No
2016/10/07,12:10,0.389,0.237,0.404,0.378,0.361,0.193,0.165,east-northeast,5.8,No
2016/10/07,12:20,0.394,0.235,0.403,0.379,0.361,0.193,0.165,northeast,5.9,No
2016/10/07,12:30,0.392,0.237,0.406,0.376,0.366,0.194,0.167,east-northeast,5.6,No
2016/10/07,12:40,0.390,0.238,0.411,0.375,0.365,0.194,0.166,east-northeast,4.4,No
2016/10/07,12:50,0.394,0.237,0.409,0.375,0.363,0.192,0.165,east-northeast,4.2,No
2016/10/07,13:00,0.393,0.236,0.407,0.375,0.360,0.194,0.166,east-northeast,4.2,No
2016/10/07,13:10,0.389,0.237,0.407,0.372,0.360,0.193,0.166,northeast,3.9,No
2016/10/07,13:20,0.392,0.237,0.405,0.372,0.366,0.194,0.166,east-northeast,4.1,No
2016/10/07,13:30,0.393,0.236,0.404,0.378,0.365,0.193,0.166,east-northeast,4.4,No
2016/10/07,13:40,0.389,0.237,0.407,0.381,0.362,0.193,0.166,east-northeast,4.2,No
2016/10/07,13:50,0.394,0.237,0.403,0.377,0.360,0.194,0.167,east-northeast,2.8,No
2016/10/07,14:00,0.393,0.236,0.411,0.376,0.361,0.194,0.166,east-northeast,3.3,No
2016/10/07,14:10,0.392,0.235,0.412,0.380,0.366,0.194,0.166,east-northeast,3.1,No
2016/10/07,14:20,0.393,0.239,0.410,0.378,0.364,0.195,0.167,east-northeast,2.7,No
2016/10/07,14:30,0.391,0.237,0.407,0.376,0.362,0.194,0.166,east-northeast,2.4,No
2016/10/07,14:40,0.393,0.236,0.413,0.380,0.367,0.194,0.167,east-northeast,2.3,No
2016/10/07,14:50,0.392,0.239,0.412,0.377,0.367,0.194,0.167,east-northeast,2.5,No
2016/10/07,15:00,0.393,0.238,0.411,0.380,0.365,0.195,0.166,east,2.2,No
2016/10/07,15:10,0.393,0.239,0.413,0.379,0.367,0.194,0.167,east,2.5,No
2016/10/07,15:20,0.393,0.238,0.410,0.377,0.363,0.194,0.167,east,2.5,No
2016/10/07,15:30,0.394,0.237,0.413,0.380,0.365,0.194,0.167,east-northeast,1.9,No
2016/10/07,15:40,0.392,0.239,0.411,0.376,0.366,0.194,0.167,east,1.1,No
2016/10/07,15:50,0.395,0.237,0.412,0.380,0.365,0.195,0.167,south,1.6,No
2016/10/07,16:00,0.391,0.239,0.412,0.377,0.366,0.194,0.165,south,1.3,No
2016/10/07,16:10,0.394,0.237,0.409,0.379,0.363,0.193,0.167,-,CALM,No
2016/10/07,16:20,0.392,0.238,0.414,0.377,0.366,0.194,0.166,-,CALM,No
2016/10/07,16:30,0.395,0.238,0.409,0.379,0.364,0.195,0.168,south-southwest,0.7,No
2016/10/07,16:40,0.393,0.239,0.412,0.378,0.365,0.195,0.165,-,CALM,No
2016/10/07,16:50,0.397,0.238,0.409,0.380,0.363,0.195,0.167,-,CALM,No
2016/10/07,17:00,0.392,0.238,0.414,0.377,0.366,0.195,0.166,south-southwest,0.7,No
2016/10/07,17:10,0.393,0.237,0.410,0.381,0.364,0.195,0.166,south,0.9,No
2016/10/07,17:20,0.391,0.239,0.412,0.377,0.365,0.195,0.167,south,1.8,No
2016/10/07,17:30,0.394,0.238,0.410,0.379,0.364,0.194,0.167,south-southwest,1.9,No
2016/10/07,17:40,0.393,0.238,0.415,0.378,0.367,0.195,0.167,south-southwest,1.8,No
2016/10/07,17:50,0.394,0.240,0.411,0.379,0.364,0.193,0.166,south,2.1,No
2016/10/07,18:00,0.394,0.238,0.411,0.378,0.367,0.195,0.167,south-southwest,2.3,No
2016/10/07,18:10,0.395,0.236,0.411,0.378,0.365,0.194,0.166,south,2.8,No
2016/10/07,18:20,0.393,0.239,0.410,0.378,0.366,0.195,0.167,south-southwest,2.5,No
2016/10/07,18:30,0.394,0.238,0.413,0.378,0.366,0.194,0.166,southwest,1.8,No
2016/10/07,18:40,0.393,0.239,0.413,0.380,0.363,0.195,0.166,south-southwest,2.5,No
2016/10/07,18:50,0.393,0.238,0.414,0.378,0.366,0.195,0.167,south-southwest,2.1,No
2016/10/07,19:00,0.395,0.239,0.412,0.381,0.365,0.195,0.167,south-southwest,3.4,No
2016/10/07,19:10,0.393,0.239,0.413,0.379,0.366,0.195,0.167,south-southwest,4.1,No
2016/10/07,19:20,0.393,0.239,0.411,0.379,0.364,0.194,0.167,south-southwest,3.3,No
2016/10/07,19:30,0.393,0.239,0.414,0.379,0.364,0.194,0.166,south-southwest,3.9,No
2016/10/07,19:40,0.392,0.237,0.411,0.380,0.365,0.194,0.167,south-southwest,4.4,No
2016/10/07,19:50,0.393,0.239,0.413,0.378,0.365,0.195,0.166,south-southwest,5.3,No
2016/10/07,20:00,0.391,0.240,0.412,0.379,0.367,0.195,0.167,south-southwest,5.2,No
2016/10/07,20:10,0.394,0.238,0.412,0.379,0.365,0.194,0.168,south-southwest,5.8,No
2016/10/07,20:20,0.393,0.238,0.413,0.379,0.367,0.195,0.167,south-southwest,5.3,No
2016/10/07,20:30,0.393,0.237,0.411,0.380,0.365,0.195,0.167,south-southwest,5.6,No
2016/10/07,20:40,0.393,0.238,0.412,0.380,0.365,0.195,0.168,south-southwest,6.3,No
2016/10/07,20:50,0.394,0.239,0.412,0.380,0.365,0.194,0.167,south-southwest,6.7,No
2016/10/07,21:00,0.394,0.238,0.412,0.379,0.363,0.194,0.167,south-southwest,7.3,No
2016/10/07,21:10,0.392,0.240,0.411,0.378,0.364,0.195,0.167,south-southwest,7.8,No
2016/10/07,21:20,0.395,0.237,0.412,0.378,0.365,0.194,0.167,south-southwest,8.6,No
2016/10/07,21:30,0.392,0.238,0.413,0.379,0.365,0.195,0.167,south-southwest,7.5,No
2016/10/07,21:40,0.392,0.238,0.411,0.379,0.364,0.195,0.166,south-southwest,9.2,No
2016/10/07,21:50,0.393,0.237,0.411,0.380,0.366,0.195,0.167,south-southwest,10.5,No
2016/10/07,22:00,0.393,0.238,0.411,0.379,0.364,0.194,0.166,south-southwest,9.3,No
2016/10/07,22:10,0.394,0.238,0.413,0.379,0.364,0.194,0.167,south-southwest,9.7,No
2016/10/07,22:20,0.392,0.239,0.412,0.380,0.366,0.194,0.167,south-southwest,9.8,No
2016/10/07,22:30,0.396,0.239,0.413,0.378,0.365,0.194,0.166,south-southwest,11.1,No
2016/10/07,22:40,0.392,0.238,0.411,0.380,0.366,0.194,0.167,south-southwest,11.1,No
2016/10/07,22:50,0.394,0.239,0.415,0.377,0.365,0.195,0.167,south-southwest,12.1,No
2016/10/07,23:00,0.393,0.237,0.411,0.379,0.365,0.194,0.168,south-southwest,11.3,No
2016/10/07,23:10,0.394,0.239,0.411,0.377,0.364,0.194,0.167,south-southwest,10.7,No
2016/10/07,23:20,0.394,0.238,0.413,0.380,0.363,0.194,0.167,south-southwest,10.2,No
2016/10/07,23:30,0.392,0.237,0.410,0.377,0.364,0.194,0.167,south-southwest,9.9,No
2016/10/07,23:40,0.392,0.238,0.413,0.380,0.365,0.195,0.167,south-southwest,11.0,No
2016/10/07,23:50,0.394,0.236,0.410,0.378,0.363,0.194,0.167,south-southwest,10.9,No
